Woody Richerson — WDF9621 — position and weather

sailwx.info

Track history (hours):
 
Tides and Currents Weather Stations Pressure Air Temp Water Temp Dewpoint Dewpoint Depression Visibility Wind Speed Wind Dir Waves Ship Positions

Woody Richerson

Owner: Florida Marine, LLC, Mandeville, LA. More information available from US FCC via Universal Licensing System and Coast Guard Vessel Documentation Center.

Last reported at 2016-Aug-02 10:33 UTC. Time now 2016-Aug-27 20:32 UTC.
Position N 29°57' W 090°10'.
Warning: this ship's position is 25 days out of date.

Length 27 m.

Type: Other ship. MMSI: 367507070.

Date/timePositionNaut miles runAvg speedWind from/ knotsBaromVisibWave heightAir tempDewpointWater temp
2016-Aug-02 10:33N 29°57' W 090°10'5 4.8
2016-Aug-02 09:33N 29°55' W 090°05'5 4.7
2016-Aug-02 08:33N 29°56' W 089°60'6 4.8
2016-Aug-02 07:22N 29°52' W 089°55'4 4.9
2016-Aug-02 06:31N 29°50' W 089°59'  
2016-Jul-29 19:33N 30°01' W 089°55'4 3.6
2016-Jul-29 18:33N 30°00' W 089°59'0 0.0
2016-Jul-29 17:33N 30°00' W 089°59'0 0.4
2016-Jul-29 16:33N 29°60' W 089°59'2 1.6
2016-Jul-29 15:33N 29°59' W 090°01'2 1.7
2016-Jul-29 14:33N 29°58' W 090°02'1 0.8
2016-Jul-29 13:34N 29°57' W 090°01'1 1.0
2016-Jul-29 12:33N 29°56' W 090°00'0 0.0
2016-Jul-29 11:33N 29°56' W 090°00'0 0.0
2016-Jul-29 10:33N 29°56' W 090°00'0 0.0
2016-Jul-29 09:33N 29°56' W 090°00'0 0.0
2016-Jul-29 08:33N 29°56' W 090°00'0 0.0
2016-Jul-29 07:33N 29°56' W 090°00'0 0.0
2016-Jul-29 06:33N 29°56' W 090°00'0 0.0
2016-Jul-29 05:33N 29°56' W 090°00'0 0.0
2016-Jul-29 04:33N 29°56' W 090°00'0 0.0
2016-Jul-29 03:33N 29°56' W 090°00'0 0.0
2016-Jul-29 02:33N 29°56' W 090°00'0 0.0
2016-Jul-29 01:33N 29°56' W 090°00'0 0.0
2016-Jul-29 00:33N 29°56' W 090°00'0 0.0
2016-Jul-28 23:33N 29°56' W 090°00'0 0.0
2016-Jul-28 22:33N 29°56' W 090°00'0 0.0
2016-Jul-28 21:33N 29°56' W 090°00'0 0.0
2016-Jul-28 20:33N 29°56' W 090°00'0 0.0
2016-Jul-28 19:33N 29°56' W 090°00'0 0.0
2016-Jul-28 18:33N 29°56' W 090°00'0 0.1
2016-Jul-28 17:33N 29°56' W 090°00'3 3.0
2016-Jul-28 16:33N 29°57' W 090°04'4 4.3
2016-Jul-28 15:33N 29°56' W 090°08'  
2016-Jul-24 15:33N 29°57' W 090°14'4 3.8
2016-Jul-24 14:33N 29°57' W 090°09'4 4.4
2016-Jul-24 13:33N 29°55' W 090°05'3 3.3
2016-Jul-24 12:33N 29°58' W 090°02'1 0.9
2016-Jul-24 11:33N 29°58' W 090°02'2 1.6
2016-Jul-24 10:33N 29°60' W 090°01'0 0.0
2016-Jul-24 09:33N 29°60' W 090°01'0 0.0
2016-Jul-24 08:33N 29°60' W 090°01'0 0.0
2016-Jul-24 07:33N 29°60' W 090°01'0 0.0
2016-Jul-24 06:33N 29°60' W 090°01'0 0.0
2016-Jul-24 05:33N 29°60' W 090°01'0 0.0
2016-Jul-24 04:33N 29°60' W 090°01'0 0.0
2016-Jul-24 03:33N 29°60' W 090°01'0 0.0
2016-Jul-24 02:33N 29°60' W 090°01'0 0.0
2016-Jul-24 01:33N 29°60' W 090°01'0 0.0
2016-Jul-24 00:33N 29°60' W 090°01'0 0.0
2016-Jul-23 23:33N 29°60' W 090°01'0 0.0
2016-Jul-23 22:33N 29°60' W 090°01'0 0.0
2016-Jul-23 21:33N 29°60' W 090°01'0 0.0
2016-Jul-23 20:33N 29°60' W 090°01'2 2.4
2016-Jul-23 19:33N 30°00' W 089°59'  
Track history (hours):
 
Tides and Currents Weather Stations Pressure Air Temp Water Temp Dewpoint Dewpoint Depression Visibility Wind Speed Wind Dir Waves Ship Positions

Woody Richerson

Owner: Florida Marine, LLC, Mandeville, LA. More information available from US FCC via Universal Licensing System and Coast Guard Vessel Documentation Center.

Last reported at 2016-Aug-02 10:33 UTC. Time now 2016-Aug-27 20:32 UTC.
Position N 29°57' W 090°10'.
Warning: this ship's position is 25 days out of date.

Length 27 m.

Type: Other ship. MMSI: 367507070.

Date/timePositionNaut miles runAvg speedWind from/ knotsBaromVisibWave heightAir tempDewpointWater temp
2016-Aug-02 10:33N 29°57' W 090°10'5 4.8
2016-Aug-02 09:33N 29°55' W 090°05'5 4.7
2016-Aug-02 08:33N 29°56' W 089°60'6 4.8
2016-Aug-02 07:22N 29°52' W 089°55'4 4.9
2016-Aug-02 06:31N 29°50' W 089°59'  
2016-Jul-29 19:33N 30°01' W 089°55'4 3.6
2016-Jul-29 18:33N 30°00' W 089°59'0 0.0
2016-Jul-29 17:33N 30°00' W 089°59'0 0.4
2016-Jul-29 16:33N 29°60' W 089°59'2 1.6
2016-Jul-29 15:33N 29°59' W 090°01'2 1.7
2016-Jul-29 14:33N 29°58' W 090°02'1 0.8
2016-Jul-29 13:34N 29°57' W 090°01'1 1.0
2016-Jul-29 12:33N 29°56' W 090°00'0 0.0
2016-Jul-29 11:33N 29°56' W 090°00'0 0.0
2016-Jul-29 10:33N 29°56' W 090°00'0 0.0
2016-Jul-29 09:33N 29°56' W 090°00'0 0.0
2016-Jul-29 08:33N 29°56' W 090°00'0 0.0
2016-Jul-29 07:33N 29°56' W 090°00'0 0.0
2016-Jul-29 06:33N 29°56' W 090°00'0 0.0
2016-Jul-29 05:33N 29°56' W 090°00'0 0.0
2016-Jul-29 04:33N 29°56' W 090°00'0 0.0
2016-Jul-29 03:33N 29°56' W 090°00'0 0.0
2016-Jul-29 02:33N 29°56' W 090°00'0 0.0
2016-Jul-29 01:33N 29°56' W 090°00'0 0.0
2016-Jul-29 00:33N 29°56' W 090°00'0 0.0
2016-Jul-28 23:33N 29°56' W 090°00'0 0.0
2016-Jul-28 22:33N 29°56' W 090°00'0 0.0
2016-Jul-28 21:33N 29°56' W 090°00'0 0.0
2016-Jul-28 20:33N 29°56' W 090°00'0 0.0
2016-Jul-28 19:33N 29°56' W 090°00'0 0.0
2016-Jul-28 18:33N 29°56' W 090°00'0 0.1
2016-Jul-28 17:33N 29°56' W 090°00'3 3.0
2016-Jul-28 16:33N 29°57' W 090°04'4 4.3
2016-Jul-28 15:33N 29°56' W 090°08'  
2016-Jul-24 15:33N 29°57' W 090°14'4 3.8
2016-Jul-24 14:33N 29°57' W 090°09'4 4.4
2016-Jul-24 13:33N 29°55' W 090°05'3 3.3
2016-Jul-24 12:33N 29°58' W 090°02'1 0.9
2016-Jul-24 11:33N 29°58' W 090°02'2 1.6
2016-Jul-24 10:33N 29°60' W 090°01'0 0.0
2016-Jul-24 09:33N 29°60' W 090°01'0 0.0
2016-Jul-24 08:33N 29°60' W 090°01'0 0.0
2016-Jul-24 07:33N 29°60' W 090°01'0 0.0
2016-Jul-24 06:33N 29°60' W 090°01'0 0.0
2016-Jul-24 05:33N 29°60' W 090°01'0 0.0
2016-Jul-24 04:33N 29°60' W 090°01'0 0.0
2016-Jul-24 03:33N 29°60' W 090°01'0 0.0
2016-Jul-24 02:33N 29°60' W 090°01'0 0.0
2016-Jul-24 01:33N 29°60' W 090°01'0 0.0
2016-Jul-24 00:33N 29°60' W 090°01'0 0.0
2016-Jul-23 23:33N 29°60' W 090°01'0 0.0
2016-Jul-23 22:33N 29°60' W 090°01'0 0.0
2016-Jul-23 21:33N 29°60' W 090°01'0 0.0
2016-Jul-23 20:33N 29°60' W 090°01'2 2.4
2016-Jul-23 19:33N 30°00' W 089°59'  

Dump ship's entire track history